Year,Month,Day,Hour,Minute,Value (Times are PST for temperature in C)
2018,06,16,00,00,12.70
2018,06,16,00,01,12.70
2018,06,16,00,02,12.60
2018,06,16,00,03,12.60
2018,06,16,00,04,12.60
2018,06,16,00,05,12.60
2018,06,16,00,06,12.60
2018,06,16,00,07,12.60
2018,06,16,00,08,12.60
2018,06,16,00,09,12.60
2018,06,16,00,10,12.50
2018,06,16,00,11,12.50
2018,06,16,00,12,12.50
2018,06,16,00,13,12.40
2018,06,16,00,14,12.40
2018,06,16,00,15,12.40
2018,06,16,00,16,12.30
2018,06,16,00,17,12.30
2018,06,16,00,18,12.30
2018,06,16,00,19,12.30
2018,06,16,00,20,12.20
2018,06,16,00,21,12.20
2018,06,16,00,22,12.20
2018,06,16,00,23,12.20
2018,06,16,00,24,12.20
2018,06,16,00,25,12.20
2018,06,16,00,26,12.20
2018,06,16,00,27,12.20
2018,06,16,00,28,12.10
2018,06,16,00,29,12.10
2018,06,16,00,30,12.10
2018,06,16,00,31,12.10
2018,06,16,00,32,12.10
2018,06,16,00,33,12.10
2018,06,16,00,34,12.00
2018,06,16,00,35,12.00
2018,06,16,00,36,12.00
2018,06,16,00,37,11.90
2018,06,16,00,38,11.90
2018,06,16,00,39,11.90
2018,06,16,00,40,11.90
2018,06,16,00,41,11.90
2018,06,16,00,42,11.80
2018,06,16,00,43,11.80
2018,06,16,00,44,11.80
2018,06,16,00,45,11.80
2018,06,16,00,46,11.80
2018,06,16,00,47,11.80
2018,06,16,00,48,11.80
2018,06,16,00,49,11.80
2018,06,16,00,50,11.80
2018,06,16,00,51,11.80
2018,06,16,00,52,11.80
2018,06,16,00,53,11.80
2018,06,16,00,54,11.80
2018,06,16,00,55,11.80
2018,06,16,00,56,11.80
2018,06,16,00,57,11.80
2018,06,16,00,58,11.80
2018,06,16,00,59,11.80
2018,06,16,01,00,11.70
2018,06,16,01,01,11.70
2018,06,16,01,02,11.70
2018,06,16,01,03,11.70
2018,06,16,01,04,11.70
2018,06,16,01,05,11.70
2018,06,16,01,06,11.70
2018,06,16,01,07,11.70
2018,06,16,01,08,11.70
2018,06,16,01,09,11.60
2018,06,16,01,10,11.60
2018,06,16,01,11,11.60
2018,06,16,01,12,11.60
2018,06,16,01,13,11.60
2018,06,16,01,14,11.50
2018,06,16,01,15,11.50
2018,06,16,01,16,11.50
2018,06,16,01,17,11.40
2018,06,16,01,18,11.40
2018,06,16,01,19,11.40
2018,06,16,01,20,11.40
2018,06,16,01,21,11.40
2018,06,16,01,22,11.30
2018,06,16,01,23,11.30
2018,06,16,01,24,11.30
2018,06,16,01,25,11.30
2018,06,16,01,26,11.30
2018,06,16,01,27,11.20
2018,06,16,01,28,11.20
2018,06,16,01,29,11.20
2018,06,16,01,30,11.20
2018,06,16,01,31,11.20
2018,06,16,01,32,11.20
2018,06,16,01,33,11.10
2018,06,16,01,34,11.10
2018,06,16,01,35,11.10
2018,06,16,01,36,11.10
2018,06,16,01,37,11.00
2018,06,16,01,38,11.00
2018,06,16,01,39,11.00
2018,06,16,01,40,10.90
2018,06,16,01,41,10.90
2018,06,16,01,42,10.90
2018,06,16,01,43,10.90
2018,06,16,01,44,10.90
2018,06,16,01,45,10.90
2018,06,16,01,46,10.90
2018,06,16,01,47,10.90
2018,06,16,01,48,10.90
2018,06,16,01,49,10.90
2018,06,16,01,50,10.90
2018,06,16,01,51,10.90
2018,06,16,01,52,10.90
2018,06,16,01,53,10.90
2018,06,16,01,54,11.00
2018,06,16,01,55,11.00
2018,06,16,01,56,11.00
2018,06,16,01,57,11.00
2018,06,16,01,58,11.00
2018,06,16,01,59,11.00
2018,06,16,02,00,11.00
2018,06,16,02,01,10.90
2018,06,16,02,02,10.90
2018,06,16,02,03,10.90
2018,06,16,02,04,10.90
2018,06,16,02,05,10.90
2018,06,16,02,06,10.90
2018,06,16,02,07,10.90
2018,06,16,02,08,10.90
2018,06,16,02,09,10.90
2018,06,16,02,10,10.90
2018,06,16,02,11,10.90
2018,06,16,02,12,10.90
2018,06,16,02,13,10.80
2018,06,16,02,14,10.80
2018,06,16,02,15,10.80
2018,06,16,02,16,10.80
2018,06,16,02,17,10.80
2018,06,16,02,18,10.80
2018,06,16,02,19,10.80
2018,06,16,02,20,10.80
2018,06,16,02,21,10.80
2018,06,16,02,22,10.80
2018,06,16,02,23,10.70
2018,06,16,02,24,10.70
2018,06,16,02,25,10.70
2018,06,16,02,26,10.70
2018,06,16,02,27,10.70
2018,06,16,02,28,10.60
2018,06,16,02,29,10.60
2018,06,16,02,30,10.60
2018,06,16,02,31,10.60
2018,06,16,02,32,10.60
2018,06,16,02,33,10.60
2018,06,16,02,34,10.60
2018,06,16,02,35,10.50
2018,06,16,02,36,10.50
2018,06,16,02,37,10.50
2018,06,16,02,38,10.50
2018,06,16,02,39,10.40
2018,06,16,02,40,10.40
2018,06,16,02,41,10.40
2018,06,16,02,42,10.40
2018,06,16,02,43,10.40
2018,06,16,02,44,10.40
2018,06,16,02,45,10.40
2018,06,16,02,46,10.40
2018,06,16,02,47,10.40
2018,06,16,02,48,10.40
2018,06,16,02,49,10.40
2018,06,16,02,50,10.40
2018,06,16,02,51,10.40
2018,06,16,02,52,10.40
2018,06,16,02,53,10.30
2018,06,16,02,54,10.30
2018,06,16,02,55,10.30
2018,06,16,02,56,10.30
2018,06,16,02,57,10.30
2018,06,16,02,58,10.30
2018,06,16,02,59,10.30
2018,06,16,03,00,10.30
2018,06,16,03,01,10.30
2018,06,16,03,02,10.30
2018,06,16,03,03,10.30
2018,06,16,03,04,10.20
2018,06,16,03,05,10.20
2018,06,16,03,06,10.20
2018,06,16,03,07,10.20
2018,06,16,03,08,10.20
2018,06,16,03,09,10.20
2018,06,16,03,10,10.20
2018,06,16,03,11,10.20
2018,06,16,03,12,10.20
2018,06,16,03,13,10.20
2018,06,16,03,14,10.20
2018,06,16,03,15,10.20
2018,06,16,03,16,10.20
2018,06,16,03,17,10.20
2018,06,16,03,18,10.20
2018,06,16,03,19,10.20
2018,06,16,03,20,10.20
2018,06,16,03,21,10.20
2018,06,16,03,22,10.10
2018,06,16,03,23,10.10
2018,06,16,03,24,10.10
2018,06,16,03,25,10.10
2018,06,16,03,26,10.10
2018,06,16,03,27,10.10
2018,06,16,03,28,10.10
2018,06,16,03,29,10.10
2018,06,16,03,30,10.00
2018,06,16,03,31,10.00
2018,06,16,03,32,10.00
2018,06,16,03,33,10.00
2018,06,16,03,34,10.00
2018,06,16,03,35,9.90
2018,06,16,03,36,9.90
2018,06,16,03,37,9.90
2018,06,16,03,38,9.90
2018,06,16,03,39,9.90
2018,06,16,03,40,9.90
2018,06,16,03,41,9.90
2018,06,16,03,42,9.90
2018,06,16,03,43,9.90
2018,06,16,03,44,9.90
2018,06,16,03,45,9.90
2018,06,16,03,46,9.90
2018,06,16,03,47,9.90
2018,06,16,03,48,9.80
2018,06,16,03,49,9.80
2018,06,16,03,50,9.80
2018,06,16,03,51,9.80
2018,06,16,03,52,9.70
2018,06,16,03,53,9.70
2018,06,16,03,54,9.70
2018,06,16,03,55,9.70
2018,06,16,03,56,9.70
2018,06,16,03,57,9.60
2018,06,16,03,58,9.60
2018,06,16,03,59,9.60
2018,06,16,04,00,9.60
2018,06,16,04,01,9.60
2018,06,16,04,02,9.60
2018,06,16,04,03,9.60
2018,06,16,04,04,9.50
2018,06,16,04,05,9.50
2018,06,16,04,06,9.50
2018,06,16,04,07,9.50
2018,06,16,04,08,9.50
2018,06,16,04,09,9.40
2018,06,16,04,10,9.40
2018,06,16,04,11,9.40
2018,06,16,04,12,9.40
2018,06,16,04,13,9.40
2018,06,16,04,14,9.40
2018,06,16,04,15,9.30
2018,06,16,04,16,9.30
2018,06,16,04,17,9.30
2018,06,16,04,18,9.30
2018,06,16,04,19,9.30
2018,06,16,04,20,9.20
2018,06,16,04,21,9.20
2018,06,16,04,22,9.20
2018,06,16,04,23,9.20
2018,06,16,04,24,9.20
2018,06,16,04,25,9.10
2018,06,16,04,26,9.10
2018,06,16,04,27,9.10
2018,06,16,04,28,9.10
2018,06,16,04,29,9.10
2018,06,16,04,30,9.10
2018,06,16,04,31,9.10
2018,06,16,04,32,9.00
2018,06,16,04,33,9.00
2018,06,16,04,34,9.00
2018,06,16,04,35,9.00
2018,06,16,04,36,8.90
2018,06,16,04,37,8.90
2018,06,16,04,38,8.90
2018,06,16,04,39,8.90
2018,06,16,04,40,8.90
2018,06,16,04,41,8.90
2018,06,16,04,42,8.90
2018,06,16,04,43,8.90
2018,06,16,04,44,8.80
2018,06,16,04,45,8.80
2018,06,16,04,46,8.80
2018,06,16,04,47,8.80
2018,06,16,04,48,8.80
2018,06,16,04,49,8.80
2018,06,16,04,50,8.80
2018,06,16,04,51,8.80
2018,06,16,04,52,8.80
2018,06,16,04,53,8.80
2018,06,16,04,54,8.80
2018,06,16,04,55,8.70
2018,06,16,04,56,8.70
2018,06,16,04,57,8.70
2018,06,16,04,58,8.70
2018,06,16,04,59,8.70
2018,06,16,05,00,8.70
2018,06,16,05,01,8.70
2018,06,16,05,02,8.70
2018,06,16,05,03,8.70
2018,06,16,05,04,8.70
2018,06,16,05,05,8.80
2018,06,16,05,06,8.80
2018,06,16,05,07,8.80
2018,06,16,05,08,8.80
2018,06,16,05,09,8.80
2018,06,16,05,10,8.80
2018,06,16,05,11,8.80
2018,06,16,05,12,8.80
2018,06,16,05,13,8.70
2018,06,16,05,14,8.70
2018,06,16,05,15,8.70
2018,06,16,05,16,8.70
2018,06,16,05,17,8.70
2018,06,16,05,18,8.70
2018,06,16,05,19,8.70
2018,06,16,05,20,8.70
2018,06,16,05,21,8.70
2018,06,16,05,22,8.60
2018,06,16,05,23,8.60
2018,06,16,05,24,8.60
2018,06,16,05,25,8.60
2018,06,16,05,26,8.60
2018,06,16,05,27,8.60
2018,06,16,05,28,8.60
2018,06,16,05,29,8.60
2018,06,16,05,30,8.60
2018,06,16,05,31,8.60
2018,06,16,05,32,8.60
2018,06,16,05,33,8.60
2018,06,16,05,34,8.60
2018,06,16,05,35,8.60
2018,06,16,05,36,8.60
2018,06,16,05,37,8.60
2018,06,16,05,38,8.60
2018,06,16,05,39,8.70
2018,06,16,05,40,8.70
2018,06,16,05,41,8.70
2018,06,16,05,42,8.70
2018,06,16,05,43,8.70
2018,06,16,05,44,8.70
2018,06,16,05,45,8.70
2018,06,16,05,46,8.70
2018,06,16,05,47,8.70
2018,06,16,05,48,8.70
2018,06,16,05,49,8.80
2018,06,16,05,50,8.70
2018,06,16,05,51,8.70
2018,06,16,05,52,8.70
2018,06,16,05,53,8.70
2018,06,16,05,54,8.70
2018,06,16,05,55,8.70
2018,06,16,05,56,8.70
2018,06,16,05,57,8.70
2018,06,16,05,58,8.60
2018,06,16,05,59,8.60
2018,06,16,06,00,8.60
2018,06,16,06,01,8.60
2018,06,16,06,02,8.60
2018,06,16,06,03,8.60
2018,06,16,06,04,8.60
2018,06,16,06,05,8.60
2018,06,16,06,06,8.60
2018,06,16,06,07,8.60
2018,06,16,06,08,8.60
2018,06,16,06,09,8.60
2018,06,16,06,10,8.60
2018,06,16,06,11,8.60
2018,06,16,06,12,8.60
2018,06,16,06,13,8.60
2018,06,16,06,14,8.60
2018,06,16,06,15,8.60
2018,06,16,06,16,8.60
2018,06,16,06,17,8.60
2018,06,16,06,18,8.60
2018,06,16,06,19,8.60
2018,06,16,06,20,8.60
2018,06,16,06,21,8.60
2018,06,16,06,22,8.60
2018,06,16,06,23,8.60
2018,06,16,06,24,8.60
2018,06,16,06,25,8.70
2018,06,16,06,26,8.70
2018,06,16,06,27,8.70
2018,06,16,06,28,8.70
2018,06,16,06,29,8.70
2018,06,16,06,30,8.70
2018,06,16,06,31,8.70
2018,06,16,06,32,8.70
2018,06,16,06,33,8.70
2018,06,16,06,34,8.70
2018,06,16,06,35,8.70
2018,06,16,06,36,8.70
2018,06,16,06,37,8.70
2018,06,16,06,38,8.70
2018,06,16,06,39,8.70
2018,06,16,06,40,8.70
2018,06,16,06,41,8.70
2018,06,16,06,42,8.70
2018,06,16,06,43,8.70
2018,06,16,06,44,8.70
2018,06,16,06,45,8.70
2018,06,16,06,46,8.70
2018,06,16,06,47,8.70
2018,06,16,06,48,8.70
2018,06,16,06,49,8.70
2018,06,16,06,50,8.70
2018,06,16,06,51,8.80
2018,06,16,06,52,8.80
2018,06,16,06,53,8.90
2018,06,16,06,54,9.00
2018,06,16,06,55,9.00
2018,06,16,06,56,9.10
2018,06,16,06,57,9.10
2018,06,16,06,58,9.10
2018,06,16,06,59,9.20
2018,06,16,07,00,9.30
2018,06,16,07,01,9.30
2018,06,16,07,02,9.30
2018,06,16,07,03,9.40
2018,06,16,07,04,9.40
2018,06,16,07,05,9.40
2018,06,16,07,06,9.40
2018,06,16,07,07,9.50
2018,06,16,07,08,9.50
2018,06,16,07,09,9.60
2018,06,16,07,10,9.60
2018,06,16,07,11,9.60
2018,06,16,07,12,9.60
2018,06,16,07,13,9.70
2018,06,16,07,14,9.70
2018,06,16,07,15,9.70
2018,06,16,07,16,9.80
2018,06,16,07,17,9.80
2018,06,16,07,18,9.80
2018,06,16,07,19,9.80
2018,06,16,07,20,9.90
2018,06,16,07,21,9.90
2018,06,16,07,22,10.00
2018,06,16,07,23,10.10
2018,06,16,07,24,10.10
2018,06,16,07,25,10.20
2018,06,16,07,26,10.30
2018,06,16,07,27,10.30
2018,06,16,07,28,10.40
2018,06,16,07,29,10.40
2018,06,16,07,30,10.40
2018,06,16,07,31,10.50
2018,06,16,07,32,10.50
2018,06,16,07,33,10.60
2018,06,16,07,34,10.60
2018,06,16,07,35,10.70
2018,06,16,07,36,10.70
2018,06,16,07,37,10.80
2018,06,16,07,38,10.80
2018,06,16,07,39,10.90
2018,06,16,07,40,11.00
2018,06,16,07,41,11.00
2018,06,16,07,42,11.10
2018,06,16,07,43,11.10
2018,06,16,07,44,11.20
2018,06,16,07,45,11.20
2018,06,16,07,46,11.30
2018,06,16,07,47,11.30
2018,06,16,07,48,11.40
2018,06,16,07,49,11.40
2018,06,16,07,50,11.50
2018,06,16,07,51,11.60
2018,06,16,07,52,11.60
2018,06,16,07,53,11.70
2018,06,16,07,54,11.70
2018,06,16,07,55,11.80
2018,06,16,07,56,11.80
2018,06,16,07,57,11.90
2018,06,16,07,58,12.00
2018,06,16,07,59,12.10
2018,06,16,08,00,12.10
2018,06,16,08,01,12.20
2018,06,16,08,02,12.30
2018,06,16,08,03,12.30
2018,06,16,08,04,12.40
2018,06,16,08,05,12.50
2018,06,16,08,06,12.60
2018,06,16,08,07,12.70
2018,06,16,08,08,12.70
2018,06,16,08,09,12.80
2018,06,16,08,10,12.90
2018,06,16,08,11,13.00
2018,06,16,08,12,13.10
2018,06,16,08,13,13.20
2018,06,16,08,14,13.20
2018,06,16,08,15,13.30
2018,06,16,08,16,13.30
2018,06,16,08,17,13.40
2018,06,16,08,18,13.50
2018,06,16,08,19,13.60
2018,06,16,08,20,13.70
2018,06,16,08,21,13.80
2018,06,16,08,22,13.90
2018,06,16,08,23,14.00
2018,06,16,08,24,14.10
2018,06,16,08,25,14.20
2018,06,16,08,26,14.30
2018,06,16,08,27,14.30
2018,06,16,08,28,14.30
2018,06,16,08,29,14.30
2018,06,16,08,30,14.40
2018,06,16,08,31,14.50
2018,06,16,08,32,14.50
2018,06,16,08,33,14.60
2018,06,16,08,34,14.60
2018,06,16,08,35,14.60
2018,06,16,08,36,14.60
2018,06,16,08,37,14.70
2018,06,16,08,38,14.80
2018,06,16,08,39,14.90
2018,06,16,08,40,15.00
2018,06,16,08,41,15.00
2018,06,16,08,42,15.00
2018,06,16,08,43,15.00
2018,06,16,08,44,15.00
2018,06,16,08,45,15.00
2018,06,16,08,46,15.00
2018,06,16,08,47,15.00
2018,06,16,08,48,15.00
2018,06,16,08,49,15.00
2018,06,16,08,50,15.10
2018,06,16,08,51,15.20
2018,06,16,08,52,15.20
2018,06,16,08,53,15.20
2018,06,16,08,54,15.20
2018,06,16,08,55,15.30
2018,06,16,08,56,15.40
2018,06,16,08,57,15.50
2018,06,16,08,58,15.70
2018,06,16,08,59,15.70
2018,06,16,09,00,15.70
2018,06,16,09,01,15.80
2018,06,16,09,02,15.80
2018,06,16,09,03,15.90
2018,06,16,09,04,15.90
2018,06,16,09,05,16.00
2018,06,16,09,06,16.00
2018,06,16,09,07,16.00
2018,06,16,09,08,16.10
2018,06,16,09,09,16.20
2018,06,16,09,10,16.20
2018,06,16,09,11,16.30
2018,06,16,09,12,16.30
2018,06,16,09,13,16.40
2018,06,16,09,14,16.50
2018,06,16,09,15,16.50
2018,06,16,09,16,16.60
2018,06,16,09,17,16.70
2018,06,16,09,18,16.70
2018,06,16,09,19,16.80
2018,06,16,09,20,16.80
2018,06,16,09,21,16.80
2018,06,16,09,22,16.80
2018,06,16,09,23,16.90
2018,06,16,09,24,16.80
2018,06,16,09,25,16.80
2018,06,16,09,26,16.80
2018,06,16,09,27,16.80
2018,06,16,09,28,16.80
2018,06,16,09,29,16.90
2018,06,16,09,30,16.90
2018,06,16,09,31,17.00
2018,06,16,09,32,17.00
2018,06,16,09,33,17.10
2018,06,16,09,34,17.20
2018,06,16,09,35,17.20
2018,06,16,09,36,17.30
2018,06,16,09,37,17.30
2018,06,16,09,38,17.40
2018,06,16,09,39,17.50
2018,06,16,09,40,17.50
2018,06,16,09,41,17.60
2018,06,16,09,42,17.70
2018,06,16,09,43,17.80
2018,06,16,09,44,18.00
2018,06,16,09,45,18.10
2018,06,16,09,46,18.20
2018,06,16,09,47,18.40
2018,06,16,09,48,18.50
2018,06,16,09,49,18.60
2018,06,16,09,50,18.70
2018,06,16,09,51,18.80
2018,06,16,09,52,18.90
2018,06,16,09,53,19.00
2018,06,16,09,54,19.10
2018,06,16,09,55,19.10
2018,06,16,09,56,19.10
2018,06,16,09,57,19.10
2018,06,16,09,58,19.10
2018,06,16,09,59,19.10
2018,06,16,10,00,19.20
2018,06,16,10,01,19.20
2018,06,16,10,02,19.20
2018,06,16,10,03,19.20
2018,06,16,10,04,19.30
2018,06,16,10,05,19.30
2018,06,16,10,06,19.30
2018,06,16,10,07,19.30
2018,06,16,10,08,19.40
2018,06,16,10,09,19.50
2018,06,16,10,10,19.50
2018,06,16,10,11,19.40
2018,06,16,10,12,19.30
2018,06,16,10,13,19.30
2018,06,16,10,14,19.30
2018,06,16,10,15,19.40
2018,06,16,10,16,19.40
2018,06,16,10,17,19.50
2018,06,16,10,18,19.60
2018,06,16,10,19,19.70
2018,06,16,10,20,19.80
2018,06,16,10,21,19.70
2018,06,16,10,22,19.70
2018,06,16,10,23,19.70
2018,06,16,10,24,19.80
2018,06,16,10,25,19.80
2018,06,16,10,26,19.90
2018,06,16,10,27,19.90
2018,06,16,10,28,19.90
2018,06,16,10,29,20.00
2018,06,16,10,30,20.10
2018,06,16,10,31,20.20
2018,06,16,10,32,20.20
2018,06,16,10,33,20.30
2018,06,16,10,34,20.30
2018,06,16,10,35,20.40
2018,06,16,10,36,20.50
2018,06,16,10,37,20.60
2018,06,16,10,38,20.60
2018,06,16,10,39,20.60
2018,06,16,10,40,20.70
2018,06,16,10,41,20.60
2018,06,16,10,42,20.50
2018,06,16,10,43,20.40
2018,06,16,10,44,20.40
2018,06,16,10,45,20.30
2018,06,16,10,46,20.20
2018,06,16,10,47,20.20
2018,06,16,10,48,20.20
2018,06,16,10,49,20.30
2018,06,16,10,50,20.40
2018,06,16,10,51,20.50
2018,06,16,10,52,20.50
2018,06,16,10,53,20.50
2018,06,16,10,54,20.40
2018,06,16,10,55,20.40
2018,06,16,10,56,20.40
2018,06,16,10,57,20.40
2018,06,16,10,58,20.50
2018,06,16,10,59,20.60
2018,06,16,11,00,20.70
2018,06,16,11,01,20.90
2018,06,16,11,02,21.10
2018,06,16,11,03,21.30
2018,06,16,11,04,21.40
2018,06,16,11,05,21.60
2018,06,16,11,06,21.80
2018,06,16,11,07,21.90
2018,06,16,11,08,22.10
2018,06,16,11,09,22.20
2018,06,16,11,10,22.30
2018,06,16,11,11,22.40
2018,06,16,11,12,22.50
2018,06,16,11,13,22.60
2018,06,16,11,14,22.70
2018,06,16,11,15,22.80
2018,06,16,11,16,22.90
2018,06,16,11,17,23.10
2018,06,16,11,18,23.20
2018,06,16,11,19,23.30
2018,06,16,11,20,23.40
2018,06,16,11,21,23.50
2018,06,16,11,22,23.60
2018,06,16,11,23,23.70
2018,06,16,11,24,23.70
2018,06,16,11,25,23.80
2018,06,16,11,26,23.90
2018,06,16,11,27,23.90
2018,06,16,11,28,24.00
2018,06,16,11,29,24.10
2018,06,16,11,30,24.20
2018,06,16,11,31,24.20
2018,06,16,11,32,24.30
2018,06,16,11,33,24.30
2018,06,16,11,34,24.30
2018,06,16,11,35,24.30
2018,06,16,11,36,24.30
2018,06,16,11,37,24.30
2018,06,16,11,38,24.40
2018,06,16,11,39,24.40
2018,06,16,11,40,24.30
2018,06,16,11,41,24.30
2018,06,16,11,42,24.30
2018,06,16,11,43,24.30
2018,06,16,11,44,24.40
2018,06,16,11,45,24.40
2018,06,16,11,46,24.40
2018,06,16,11,47,24.40
2018,06,16,11,48,24.40
2018,06,16,11,49,24.40
2018,06,16,11,50,24.40
2018,06,16,11,51,24.50
2018,06,16,11,52,24.50
2018,06,16,11,53,24.60
2018,06,16,11,54,24.70
2018,06,16,11,55,24.80
2018,06,16,11,56,24.80
2018,06,16,11,57,24.80
2018,06,16,11,58,24.80
2018,06,16,11,59,24.80
2018,06,16,12,00,24.90
2018,06,16,12,01,24.90
2018,06,16,12,02,25.00
2018,06,16,12,03,25.00
2018,06,16,12,04,25.10
2018,06,16,12,05,25.20
2018,06,16,12,06,25.10
2018,06,16,12,07,25.10
2018,06,16,12,08,25.10
2018,06,16,12,09,25.10
2018,06,16,12,10,25.10
2018,06,16,12,11,25.10
2018,06,16,12,12,25.00
2018,06,16,12,13,25.00
2018,06,16,12,14,25.10
2018,06,16,12,15,25.10
2018,06,16,12,16,25.10
2018,06,16,12,17,25.20
2018,06,16,12,18,25.10
2018,06,16,12,19,25.10
2018,06,16,12,20,25.20
2018,06,16,12,21,25.30
2018,06,16,12,22,25.30
2018,06,16,12,23,25.30
2018,06,16,12,24,25.30
2018,06,16,12,25,25.30
2018,06,16,12,26,25.30
2018,06,16,12,27,25.30
2018,06,16,12,28,25.30
2018,06,16,12,29,25.30
2018,06,16,12,30,25.40
2018,06,16,12,31,25.40
2018,06,16,12,32,25.40
2018,06,16,12,33,25.50
2018,06,16,12,34,25.60
2018,06,16,12,35,25.70
2018,06,16,12,36,25.60
2018,06,16,12,37,25.60
2018,06,16,12,38,25.60
2018,06,16,12,39,25.70
2018,06,16,12,40,25.80
2018,06,16,12,41,25.80
2018,06,16,12,42,25.90
2018,06,16,12,43,25.90
2018,06,16,12,44,25.90
2018,06,16,12,45,25.90
2018,06,16,12,46,25.90
2018,06,16,12,47,25.90
2018,06,16,12,48,25.90
2018,06,16,12,49,25.90
2018,06,16,12,50,26.00
2018,06,16,12,51,26.00
2018,06,16,12,52,26.10
2018,06,16,12,53,26.20
2018,06,16,12,54,26.20
2018,06,16,12,55,26.20
2018,06,16,12,56,26.30
2018,06,16,12,57,26.30
2018,06,16,12,58,26.30
2018,06,16,12,59,26.20
2018,06,16,13,00,26.20
2018,06,16,13,01,26.20
2018,06,16,13,02,26.30
2018,06,16,13,03,26.30
2018,06,16,13,04,26.30
2018,06,16,13,05,26.30
2018,06,16,13,06,26.20
2018,06,16,13,07,26.10
2018,06,16,13,08,26.00
2018,06,16,13,09,25.90
2018,06,16,13,10,26.00
2018,06,16,13,11,26.10
2018,06,16,13,12,26.10
2018,06,16,13,13,26.20
2018,06,16,13,14,26.20
2018,06,16,13,15,26.10
2018,06,16,13,16,26.20
2018,06,16,13,17,26.20
2018,06,16,13,18,26.20
2018,06,16,13,19,26.30
2018,06,16,13,20,26.30
2018,06,16,13,21,26.30
2018,06,16,13,22,26.40
2018,06,16,13,23,26.50
2018,06,16,13,24,26.50
2018,06,16,13,25,26.60
2018,06,16,13,26,26.60
2018,06,16,13,27,26.60
2018,06,16,13,28,26.60
2018,06,16,13,29,26.60
2018,06,16,13,30,26.60
2018,06,16,13,31,26.60
2018,06,16,13,32,26.60
2018,06,16,13,33,26.60
2018,06,16,13,34,26.40
2018,06,16,13,35,26.30
2018,06,16,13,36,26.20
2018,06,16,13,37,26.10
2018,06,16,13,38,26.00
2018,06,16,13,39,25.90
2018,06,16,13,40,25.80
2018,06,16,13,41,25.70
2018,06,16,13,42,25.80
2018,06,16,13,43,25.90
2018,06,16,13,44,25.90
2018,06,16,13,45,26.10
2018,06,16,13,46,26.20
2018,06,16,13,47,26.40
2018,06,16,13,48,26.50
2018,06,16,13,49,26.70
2018,06,16,13,50,26.80
2018,06,16,13,51,26.90
2018,06,16,13,52,27.00
2018,06,16,13,53,27.10
2018,06,16,13,54,27.10
2018,06,16,13,55,27.20
2018,06,16,13,56,27.20
2018,06,16,13,57,27.20
2018,06,16,13,58,27.10
2018,06,16,13,59,27.20
2018,06,16,14,00,27.20
2018,06,16,14,01,27.10
2018,06,16,14,02,27.10
2018,06,16,14,03,27.10
2018,06,16,14,04,27.10
2018,06,16,14,05,27.10
2018,06,16,14,06,27.00
2018,06,16,14,07,27.00
2018,06,16,14,08,26.90
2018,06,16,14,09,26.90
2018,06,16,14,10,26.90
2018,06,16,14,11,26.90
2018,06,16,14,12,26.90
2018,06,16,14,13,26.80
2018,06,16,14,14,26.80
2018,06,16,14,15,26.80
2018,06,16,14,16,26.80
2018,06,16,14,17,26.80
2018,06,16,14,18,26.80
2018,06,16,14,19,26.90
2018,06,16,14,20,26.90
2018,06,16,14,21,27.00
2018,06,16,14,22,27.10
2018,06,16,14,23,27.10
2018,06,16,14,24,27.10
2018,06,16,14,25,27.10
2018,06,16,14,26,27.10
2018,06,16,14,27,27.10
2018,06,16,14,28,27.10
2018,06,16,14,29,27.20
2018,06,16,14,30,27.30
2018,06,16,14,31,27.40
2018,06,16,14,32,27.50
2018,06,16,14,33,27.50
2018,06,16,14,34,27.60
2018,06,16,14,35,27.60
2018,06,16,14,36,27.60
2018,06,16,14,37,27.60
2018,06,16,14,38,27.60
2018,06,16,14,39,27.70
2018,06,16,14,40,27.70
2018,06,16,14,41,27.80
2018,06,16,14,42,27.80
2018,06,16,14,43,27.80
2018,06,16,14,44,27.80
2018,06,16,14,45,27.80
2018,06,16,14,46,27.80
2018,06,16,14,47,27.80
2018,06,16,14,48,27.70
2018,06,16,14,49,27.70
2018,06,16,14,50,27.70
2018,06,16,14,51,27.70
2018,06,16,14,52,27.60
2018,06,16,14,53,27.60
2018,06,16,14,54,27.60
2018,06,16,14,55,27.60
2018,06,16,14,56,27.60
2018,06,16,14,57,27.60
2018,06,16,14,58,27.60
2018,06,16,14,59,27.60
2018,06,16,15,00,27.50
2018,06,16,15,01,27.50
2018,06,16,15,02,27.60
2018,06,16,15,03,27.70
2018,06,16,15,04,27.80
2018,06,16,15,05,27.80
2018,06,16,15,06,27.90
2018,06,16,15,07,27.90
2018,06,16,15,08,27.90
2018,06,16,15,09,27.80
2018,06,16,15,10,27.80
2018,06,16,15,11,27.70
2018,06,16,15,12,27.80
2018,06,16,15,13,27.80
2018,06,16,15,14,27.80
2018,06,16,15,15,27.80
2018,06,16,15,16,27.80
2018,06,16,15,17,27.80
2018,06,16,15,18,27.70
2018,06,16,15,19,27.70
2018,06,16,15,20,27.70
2018,06,16,15,21,27.70
2018,06,16,15,22,27.70
2018,06,16,15,23,27.70
2018,06,16,15,24,27.70
2018,06,16,15,25,27.70
2018,06,16,15,26,27.70
2018,06,16,15,27,27.70
2018,06,16,15,28,27.60
2018,06,16,15,29,27.50
2018,06,16,15,30,27.50
2018,06,16,15,31,27.50
2018,06,16,15,32,27.50
2018,06,16,15,33,27.60
2018,06,16,15,34,27.60
2018,06,16,15,35,27.50
2018,06,16,15,36,27.50
2018,06,16,15,37,27.40
2018,06,16,15,38,27.40
2018,06,16,15,39,27.50
2018,06,16,15,40,27.60
2018,06,16,15,41,27.60
2018,06,16,15,42,27.70
2018,06,16,15,43,27.80
2018,06,16,15,44,27.80
2018,06,16,15,45,27.80
2018,06,16,15,46,27.80
2018,06,16,15,47,27.80
2018,06,16,15,48,27.90
2018,06,16,15,49,27.90
2018,06,16,15,50,27.90
2018,06,16,15,51,27.90
2018,06,16,15,52,27.90
2018,06,16,15,53,27.90
2018,06,16,15,54,27.90
2018,06,16,15,55,27.90
2018,06,16,15,56,27.80
2018,06,16,15,57,27.80
2018,06,16,15,58,27.70
2018,06,16,15,59,27.70
2018,06,16,16,00,27.80
2018,06,16,16,01,27.80
2018,06,16,16,02,27.80
2018,06,16,16,03,27.70
2018,06,16,16,04,27.70
2018,06,16,16,05,27.70
2018,06,16,16,06,27.60
2018,06,16,16,07,27.60
2018,06,16,16,08,27.60
2018,06,16,16,09,27.60
2018,06,16,16,10,27.60
2018,06,16,16,11,27.60
2018,06,16,16,12,27.70
2018,06,16,16,13,27.70
2018,06,16,16,14,27.80
2018,06,16,16,15,27.90
2018,06,16,16,16,27.90
2018,06,16,16,17,28.00
2018,06,16,16,18,28.00
2018,06,16,16,19,28.00
2018,06,16,16,20,28.00
2018,06,16,16,21,27.90
2018,06,16,16,22,27.90
2018,06,16,16,23,27.90
2018,06,16,16,24,27.90
2018,06,16,16,25,27.90
2018,06,16,16,26,27.90
2018,06,16,16,27,27.80
2018,06,16,16,28,27.80
2018,06,16,16,29,27.80
2018,06,16,16,30,27.80
2018,06,16,16,31,27.90
2018,06,16,16,32,27.90
2018,06,16,16,33,28.00
2018,06,16,16,34,28.10
2018,06,16,16,35,28.20
2018,06,16,16,36,28.20
2018,06,16,16,37,28.20
2018,06,16,16,38,28.20
2018,06,16,16,39,28.20
2018,06,16,16,40,28.20
2018,06,16,16,41,28.20
2018,06,16,16,42,28.30
2018,06,16,16,43,28.40
2018,06,16,16,44,28.40
2018,06,16,16,45,28.50
2018,06,16,16,46,28.60
2018,06,16,16,47,28.60
2018,06,16,16,48,28.70
2018,06,16,16,49,28.70
2018,06,16,16,50,28.70
2018,06,16,16,51,28.70
2018,06,16,16,52,28.60
2018,06,16,16,53,28.60
2018,06,16,16,54,28.60
2018,06,16,16,55,28.60
2018,06,16,16,56,28.50
2018,06,16,16,57,28.50
2018,06,16,16,58,28.50
2018,06,16,16,59,28.50
2018,06,16,17,00,28.60
2018,06,16,17,01,28.60
2018,06,16,17,02,28.70
2018,06,16,17,03,28.70
2018,06,16,17,04,28.70
2018,06,16,17,05,28.70
2018,06,16,17,06,28.70
2018,06,16,17,07,28.70
2018,06,16,17,08,28.70
2018,06,16,17,09,28.70
2018,06,16,17,10,28.80
2018,06,16,17,11,28.80
2018,06,16,17,12,28.70
2018,06,16,17,13,28.70
2018,06,16,17,14,28.70
2018,06,16,17,15,28.70
2018,06,16,17,16,28.70
2018,06,16,17,17,28.70
2018,06,16,17,18,28.70
2018,06,16,17,19,28.70
2018,06,16,17,20,28.60
2018,06,16,17,21,28.50
2018,06,16,17,22,28.40
2018,06,16,17,23,28.40
2018,06,16,17,24,28.40
2018,06,16,17,25,28.30
2018,06,16,17,26,28.30
2018,06,16,17,27,28.20
2018,06,16,17,28,28.20
2018,06,16,17,29,28.20